Location: Dos Palmas
(32.4468°N, 116.8732°W)
Time: 02:22:46
(UTC+00:00)

Aureole 3 Rocket - Pass Details

Date: 20 June 2021
Orbit: 399 x 1739 km, 82.5° (Epoch: 27 July)

Event Time Altitude Azimuth Distance (km) Brightness Sun altitude
Rises 09:29:10 0° 356° (N) 2,811 7.3 -29.2°
Reaches altitude 10° 09:31:05 10° 358° (N) 2,040 6.4 -29.0°
Enters shadow 09:35:20 74° 53° (NE) 824 3.6 -28.6°
